Current Version              Previous Version:    01  02  03  04  05  06  07  08  09  10  11  12  13  14  15  16  17  18  19  20  21  22  23  24  25  26  27  28  29  30  
   31  32  33  34  35  36  37  38  39  40  41  42  43  44  45  46  47  48  49  50  51  52  53  54  55  56  57  58  59  60  

[Printable]
079
ASUS44 KFWD 210815
RWRTX
NORTH TEXAS HOURLY WEATHER ROUNDUP
NATIONAL WEATHER SERVICE FORT WORTH TX
200 AM CST SUN DEC 21 2014

NOTE: "FAIR" INDICATES FEW OR NO CLOUDS BELOW 12,000 FEET WITH NO
SIGNIFICANT WEATHER AND/OR OBSTRUCTIONS TO VISIBILITY.

TXZ118-119-210900-
DALLAS/FORT WORTH METROPLEX

CITY           SKY/WX    TMP DP  RH WIND       PRES   REMARKS
DFW AIRPORT    CLOUDY    47  44  90 SE6       30.15S
DALLAS LOVE    CLOUDY    48  45  89 SE6       30.16F
FTW MEACHAM    CLOUDY    48  44  86 SE7       30.14F FOG
DAL-EXECUTIVE  CLOUDY    49  45  86 SE3       30.15S
FTW-ALLIANCE   CLOUDY    47  44  90 SE6       30.14F
FTW-SPINKS     CLOUDY    47  45  91 CALM      30.16F FOG
ARLINGTON      CLOUDY    48  43  82 SE5       30.15F
GRAND PRAIRIE  CLOUDY    47  47 100 MISG      30.17F
ADDISON        CLOUDY    48  48 100 S5        30.17S
MESQUITE       CLOUDY    47  45  91 SE5       30.16F
LANCASTER      CLOUDY    46  44  91 CALM      30.17F FOG
$$

TXZ091>094-102>105-117-120-121-131>134-210900-
NORTH CENTRAL TEXAS

CITY           SKY/WX    TMP DP  RH WIND       PRES   REMARKS
SHRMAN/DENISON CLOUDY    47  46  97 CALM      30.16F FOG
GAINESVILLE    CLOUDY    44  43  95 SE5       30.16F FOG
BOWIE          CLOUDY    44  43  97 SE5       30.12F FOG
BRIDGEPORT     CLOUDY    46  45  96 SE3       30.15F FOG
DECATUR        MOCLDY    45  44  97 SE6       30.14S FOG
DENTON         CLOUDY    46  44  93 S6        30.15F
MCKINNEY       CLOUDY    47  45  93 SE5       30.16F
GREENVILLE     CLOUDY    46  45  93 SE6       30.16F FOG
ROCKWALL       CLOUDY    47  46  93 SE6       30.15F FOG
TERRELL        CLOUDY    49  45  86 SE6       30.17F
WAXAHACHIE     CLOUDY    46  46 100 SE3       30.17F
CLEBURNE       CLOUDY    46  46 100 SE6       30.16F FOG
GRANBURY       CLOUDY    48  45  89 SE5       30.15F FOG
$$

TXZ083>090-098>101-113>116-127>130-139>142-154-155-210900-
WESTERN NORTH TEXAS

CITY           SKY/WX    TMP DP  RH WIND       PRES   REMARKS
WICHITA FALLS  MOCLDY    42  38  85 SE9       30.10F WCI  37
WF-KICKAPOO    MOCLDY    42  38  87 SE7       30.11F WCI  38
VERNON         CLOUDY    44  39  82 SE10      30.08F WCI  38
ABILENE        CLOUDY    43  39  86 SE13      30.06F WCI  36
ABILENE-DYESS  CLEAR     43  37  80 S13       30.04  WCI  36
BRECKENRIDGE   CLOUDY    48  40  75 S8        30.09F
GRAHAM         MOCLDY    44  42  94 SE5       30.08F
MINERAL WELLS  CLOUDY    46  43  89 SE9       30.10F FOG
STEPHENVILLE   CLOUDY    46  42  86 S5        30.15F
COMANCHE       CLOUDY    47  44  90 S8        30.13F
BROWNWOOD      CLOUDY    45  41  87 SE6       30.12F
COLEMAN        CLOUDY    45  42  90 S12       30.10F WCI  39
$$

TXZ143>147-156>162-174-175-210900-
CENTRAL TEXAS

CITY           SKY/WX    TMP DP  RH WIND       PRES   REMARKS
WACO           CLOUDY    48  45  89 SE7       30.16F
WACO-MCGREGOR  CLOUDY    48  43  81 SE6       30.17S
HILLSBORO      CLOUDY    48  45  89 E6        30.15F
CORSICANA      CLOUDY    47  43  86 CALM      30.18F
MEXIA          CLOUDY    46  44  90 CALM      30.16F
HEARNE         CLOUDY    47  45  92 CALM      30.19S
CAMERON        CLOUDY    48  46  90 S3        30.17S
TEMPLE         CLOUDY    48  43  81 SE7       30.15S
KILLEEN        CLOUDY    47  47  97 S5        30.15
KILLEEN-SKYLRK CLOUDY    48  43  81 SE3       30.14S
FORT HOOD      CLOUDY    48  46  93 SE3       30.14S
GATESVILLE     MOCLDY    48  46  93 CALM      30.17S
HAMILTON       CLOUDY    47  46  97 SE7G16    30.14F
$$

TXZ095>097-106>112-122>126-135>138-148>153-164>167-210900-
EAST TEXAS

CITY           SKY/WX    TMP DP  RH WIND       PRES   REMARKS
PARIS          CLOUDY    46  41  81 S7        30.18F
SULPHUR SPRNGS CLOUDY    47  44  91 SE7       30.19F
MOUNT PLEASANT CLOUDY    43  43 100 CALM      30.20S
MINEOLA        CLOUDY    45  45 100 CALM      30.19F FOG
TYLER          CLOUDY    43  40  89 CALM      30.17F FOG
LONGVIEW       FOG       37  36  96 CALM      30.17S VSB 1/2
MARSHALL       CLEAR     36  34  94 CALM      30.20S
ATHENS         CLOUDY    43  41  93 CALM      30.17S
PALESTINE      CLEAR     40  40 100 CALM      30.19S FOG
JACKSONVILLE   CLOUDY    43  42  99 CALM      30.18S FOG
HENDERSON      FOG       36  36 100 CALM      30.18S VSB 1/2
NACOGDOCHES    MOCLDY    36  34  93 CALM      30.17F
LUFKIN         MOCLDY    42  38  85 CALM      30.17F FOG
$$

SUPPLEMENTAL OBSERVATIONS (CENTRAL)

CITY           SKY/WX    TMP DP  RH WIND       PRES   REMARKS
LAKE TEXOMA      N/A     46  41  81 SE2         N/A
CADDO GRASSLND   N/A     46  41  81 S6          N/A
PAT MAYSE LAKE   N/A     45  43  93 SE6         N/A
GREENVILLE       N/A     46  41  81 SE6         N/A
CEDAR HILL       N/A     46  41  81 SE5         N/A
ATHENS           N/A     45  43  93 E2          N/A
PALESTINE        N/A     39  37  93 CALM        N/A
LAKE LIMESTONE   N/A     48  45  87 CALM        N/A
MCGREGOR         N/A     48  45  87 SE3         N/A
TEMPLE           N/A     48  45  87 SE7         N/A
$$

SUPPLEMENTAL OBSERVATIONS (WEST)

CITY           SKY/WX    TMP DP  RH WIND       PRES   REMARKS
MILLERS CREEK    N/A     45  41  87 S9          N/A  WCI  40
POSSUM KINGDOM   N/A     45  39  81 SE9         N/A  WCI  40
LBJ GRASSLAND    N/A     45  39  81 SE6         N/A
GRANBURY         N/A     46  41  81 SE8         N/A
COMANCHE         N/A     46  45  93 S9          N/A
HAMBY            N/A     43  39  87 S13         N/A  WCI  36
IVIE RESERVOIR   N/A     46  41  81 SE7         N/A
COLORADO BEND    N/A     46  41  81 S5          N/A
$$

SUPPLEMENTAL OBSERVATIONS (EAST)

CITY           SKY/WX    TMP DP  RH WIND       PRES   REMARKS
CLARKSVILLE      N/A     46  45  93 S6          N/A
TEXARKANA        N/A     36  32  87 CALM        N/A
LINDEN           N/A     36  34  93 CALM        N/A
CADDO LAKE       N/A     34  32  93 CALM        N/A
GILMER           N/A     37  36  93 CALM        N/A
HENDERSON        N/A     36  32  87 CALM        N/A
LUFKIN           N/A     39  36  87 MISG        N/A
N SABINE NF      N/A     36  32  87 MISG        N/A
S SABINE NF      N/A     39  36  87 N1          N/A
$$

SUPPLEMENTAL OBSERVATIONS ARE A COLLECTION OF AUTOMATED INSTRUMENTS
THAT ARE MAINTAINED BY A VARIETY OF FEDERAL AND STATE AGENCIES.
CERTAIN ELEMENTS...SUCH AS HUMIDITY VALUES AND SUSTAINED WIND
SPEEDS...MAY BE APPROXIMATED.